CST,Max TemperatureF,Mean TemperatureF,Min TemperatureF,Max Dew PointF,MeanDew PointF,Min DewpointF,Max Humidity, Mean Humidity, Min Humidity, Max Sea Level PressureIn, Mean Sea Level PressureIn, Min Sea Level PressureIn, Max VisibilityMiles, Mean VisibilityMiles, Min VisibilityMiles, Max Wind SpeedMPH, Mean Wind SpeedMPH, Max Gust SpeedMPH,PrecipitationIn, CloudCover, Events, WindDirDegrees
2013-1-1,73,66,58,65,56,47,88,74,57,30.19,30.04,29.90,10,7,4,20,10,26,0.00,7,Rain,330
2013-1-2,57,50,43,47,43,40,90,83,65,30.32,30.25,30.15,10,7,5,15,10,20,0.14,7,Rain,360
2013-1-3,51,47,43,40,37,34,85,66,53,30.39,30.35,30.29,10,6,4,15,10,18,0.05,8,,355
2013-1-4,49,46,44,44,42,34,92,84,56,30.45,30.38,30.34,7,4,1,17,12,25,0.05,8,Rain,332
2013-1-5,54,50,45,46,44,40,91,81,72,30.38,30.31,30.25,7,6,1,15,11,22,0.00,8,Rain,338
2013-1-6,68,58,46,46,43,37,86,62,32,30.37,30.30,30.24,10,7,4,14,7,18,0.00,4,,351
2013-1-7,69,57,45,57,49,41,87,73,51,30.31,30.16,29.99,10,6,4,12,4,,0.06,5,,42
2013-1-8,74,67,60,66,63,57,93,84,72,29.98,29.84,29.70,10,6,2,34,6,45,0.05,5,Rain-Thunderstorm,159
2013-1-9,71,65,58,67,59,53,93,85,70,30.09,29.95,29.82,10,7,3,22,9,26,0.28,5,Rain-Thunderstorm,292
2013-1-10,73,62,51,59,54,50,94,78,49,30.10,30.06,30.02,10,6,1,12,3,17,0.01,1,Rain-Thunderstorm,111
2013-1-11,82,68,53,67,61,51,94,80,54,30.07,29.91,29.80,7,5,0,18,5,26,0.06,1,Fog-Rain,154
2013-1-12,85,78,70,71,69,67,88,77,57,29.83,29.73,29.65,7,5,4,29,12,40,0.00,3,,166
2013-1-13,76,66,56,70,42,28,87,50,27,30.09,29.97,29.70,10,8,4,29,14,37,0.00,5,,340
2013-1-14,56,52,47,44,39,35,87,63,44,30.19,30.11,30.07,10,6,3,14,9,18,0.03,8,,18
2013-1-15,48,47,46,46,44,36,93,86,67,30.26,30.11,30.03,10,5,2,17,9,23,0.03,8,Rain,354
2013-1-16,61,50,39,37,24,13,68,40,15,30.41,30.32,30.26,10,7,5,25,13,33,0.00,2,,322
2013-1-17,71,55,39,40,29,23,73,43,20,30.47,30.41,30.35,10,7,5,17,7,22,0.03,0,,298
2013-1-18,70,55,40,45,39,35,82,59,28,30.50,30.41,30.31,10,7,4,8,3,9,0.00,0,,53
2013-1-19,75,60,44,51,46,41,90,63,30,30.32,30.24,30.14,10,7,4,12,3,16,0.00,0,,157
2013-1-20,78,63,48,55,50,46,90,68,34,30.25,30.17,30.08,10,7,3,13,3,,0.00,1,,123
2013-1-21,77,66,56,58,54,52,88,69,44,30.22,30.15,30.10,10,7,5,14,5,17,0.00,1,,92
2013-1-22,77,65,53,56,51,43,92,67,29,30.28,30.22,30.17,10,6,2,14,4,18,0.00,2,,86
2013-1-23,81,68,55,63,58,52,91,74,48,30.32,30.26,30.21,10,6,3,14,4,21,0.00,3,,150
2013-1-24,85,72,60,66,61,57,93,75,38,30.30,30.22,30.13,10,6,0,15,7,20,0.00,2,Rain,164
2013-1-25,85,73,61,65,62,58,92,72,43,30.18,30.10,30.02,10,6,2,18,10,26,0.00,0,,153
2013-1-26,84,70,57,66,58,49,93,69,30,30.13,30.08,30.01,10,6,0,20,8,26,0.00,2,Fog-Rain,141
2013-1-27,84,74,64,68,65,62,91,74,48,30.06,30.00,29.92,7,6,3,24,12,32,0.00,5,,145
2013-1-28,86,80,73,69,67,64,83,70,48,30.03,29.96,29.88,7,6,4,26,16,33,0.00,6,Rain,155
2013-1-29,91,82,74,68,66,58,79,65,34,29.90,29.74,29.61,7,6,5,24,17,32,0.06,4,,172
2013-1-30,74,60,47,49,16,6,40,17,8,30.27,30.06,29.74,10,6,4,31,18,41,0.00,1,,348
2013-1-31,72,58,43,42,28,20,64,35,14,30.35,30.27,30.21,10,7,5,14,3,17,0.00,0,,142